Weather observations for the past three days for
Junction, Kimble County Airport
Imperial (Metric)
Date Time (cdt) Wind (mph) Vis. (mi.) Weather Sky Cond. Temperature (ºF) Relative Humidity Wind Chill (°F) Heat Index (°F) Pressure Precipitation (in)
Air Dwpt 6 hour altimeter (in) sea level (mb) 1 hr 3 hr 6 hr
Max. Min.
22 04:51 Calm 10.00 Fair CLR 72 71.1 97% 30.12 1016.2
22 03:51 Calm 10.00 Fair CLR 73.9 71.1 91% 30.12 1016.1
22 02:51 Calm 10.00 Fair CLR 75 71.1 88% 75 30.13 1016.5
22 01:51 Calm 10.00 A Few Clouds FEW027 75 72 90% 74 30.14 1016.9
22 00:51 Calm 10.00 Fair CLR 75.9 71.1 89.1 75.9 85% 76 30.14 1016.9
21 23:51 E 5 10.00 Fair CLR 78.1 71.1 79% 80 30.14 1016.8
21 22:51 E 6 10.00 Fair CLR 79 71.1 77% 82 30.13 1016.4
21 21:51 SE 6 10.00 Partly Cloudy SCT050 81 70 69% 84 30.1 1015.7
21 20:51 SE 8 10.00 Fair CLR 84 69.1 61% 88 30.08 1015.0
21 19:51 SE 9 10.00 Fair CLR 87.1 70 57% 92 30.07 1014.6
21 18:51 SE 10 G 20 10.00 A Few Clouds FEW055 89.1 69.1 91 84.9 52% 94 30.07 1014.5
21 17:51 SE 9 10.00 Fair CLR 90 68 48% 94 30.08 1014.6
21 16:51 E 12 10.00 A Few Clouds FEW050 90 66.9 47% 93 30.09 1015.1
21 15:51 E 10 G 22 10.00 A Few Clouds FEW060 90 68 48% 94 30.11 1015.7
21 14:51 E 9 G 20 10.00 Partly Cloudy SCT050 88 69.1 54% 92 30.13 1016.3
21 13:51 SE 13 G 21 10.00 Mostly Cloudy SCT044 BKN060 87.1 69.1 55% 91 30.16 1017.4
21 12:51 E 12 10.00 Mostly Cloudy FEW036 BKN055 BKN085 84.9 71.1 84.9 72 63% 90 30.17 1018.0
21 02:51 Calm 8.00 Partly Cloudy SCT014 73 73 100% 30.15 1017.4
21 01:51 E 7 10.00 Overcast FEW033 OVC070 73.9 73.9 100% 30.17 1018.1
21 00:51 E 3 10.00 Partly Cloudy FEW021 FEW025 SCT060 73.9 73.9 78.1 73 100% 30.18 1018.2 0.5
20 23:51 Calm 9.00 A Few Clouds FEW065 73 73 100% 30.18 1018.5
20 22:51 NE 5 10.00 Mostly Cloudy FEW042 SCT050 BKN065 73.9 73 97% 30.17 1018.2
20 21:51 N 3 10.00 Mostly Cloudy FEW050 SCT060 BKN100 73.9 73.9 100% 30.16 1017.9 0.5
20 20:51 Calm 10.00 Light Rain SCT055 BKN070 OVC110 73.4 0 0% 30.15 1017.5 0.5
20 19:51 NE 6 9.00 Overcast FEW026 BKN070 OVC090 78.1 75.9 93% 81 30.12 1016.5
20 18:51 E 6 9.00 Fair CLR 78.1 75.9 86 73.9 93% 81 30.11 1016.0 0.4
20 17:51 NE 12 10.00 Partly Cloudy SCT070 75.9 73.9 94% 75 30.11 1016.2
20 16:51 E 16 G 23 6.00 Light Rain Fog/Mist SCT029 BKN050 OVC080 75 75 100% 72 30.12 1016.7 0.4
20 15:51 E 17 G 25 10.00 Partly Cloudy FEW035 SCT047 SCT090 84.9 72 65% 91 30.1 1015.8
20 14:51 E 15 G 24 10.00 A Few Clouds FEW027 82.9 73 72% 89 30.12 1016.3
20 13:51 NE 17 G 25 10.00 Mostly Cloudy FEW021 SCT026 BKN033 82 73.9 77% 88 30.14 1017.1
20 12:51 E 15 G 23 10.00 Mostly Cloudy FEW021 BKN060 81 73.9 81 72 79% 86 30.15 1017.6
20 11:51 E 15 10.00 Partly Cloudy FEW012 SCT022 SCT033 78.1 73.9 87% 81 30.16 1017.9
20 10:51 E 13 9.00 Overcast FEW008 BKN015 OVC031 77 75 94% 78 30.16 1018.0
20 09:51 E 12 6.00 Fog/Mist BKN008 OVC014 75 73.9 96% 73 30.16 1017.9
20 08:51 NE 10 5.00 Fog/Mist OVC010 73.9 73 97% 30.14 1017.3
20 07:51 NE 9 7.00 Overcast OVC010 73 73 100% 30.12 1016.6
20 06:51 NE 8 9.00 Light Rain FEW006 BKN039 BKN065 72 72 72 69.1 100% 30.1 1015.9 0.05 0.53
20 05:51 E 8 8.00 Light Rain FEW009 SCT050 BKN075 71.1 71.1 100% 30.1 1015.8 0.05
20 04:51 E 12 5.00 Rain Fog/Mist FEW007 BKN041 OVC050 70 70 100% 30.09 1015.3 0.26
20 03:51 E 9 6.00 Light Rain Fog/Mist SCT009 SCT085 BKN110 69.1 69.1 100% 30.08 1015.2 0.04 0.17
20 02:51 E 14 7.00 Light Rain BKN120 70 70 100% 30.09 1015.4 0.06
20 01:51 E 13 G 22 6.00 Light Rain Fog/Mist SCT110 70 70 100% 30.11 1016.0 0.07
20 00:51 E 13 7.00 Light Rain BKN014 BKN060 OVC110 70 70 79 69.1 100% 30.13 1016.7 0.07 0.24
19 23:51 E 12 5.00 Light Rain Fog/Mist FEW006 OVC013 69.1 69.1 100% 30.14 1017.2 0.11
19 22:51 E 14 G 24 5.00 Light Rain Fog/Mist OVC013 69.1 69.1 100% 30.12 1016.6 0.06
19 21:51 E 18 G 25 10.00 Mostly Cloudy SCT013 BKN021 71.1 68 90% 30.11 1016.0
19 20:51 E 13 10.00 Overcast BKN016 BKN021 OVC032 73 69.1 87% 30.08 1015.2
19 19:51 E 20 G 28 10.00 Overcast BKN026 OVC031 75 68 79% 76 30.06 1014.5
19 18:51 E 18 G 30 10.00 Mostly Cloudy FEW032 BKN050 79 68 84.9 77 69% 81 30.04 1013.6 0.05
19 17:51 E 18 G 26 10.00 Overcast FEW044 OVC060 80.1 71.1 74% 84 30.01 1012.6
19 16:51 E 15 G 24 7.00 Light Rain FEW031 BKN055 OVC090 80.1 73 79% 84 30 1012.3 0.05
19 15:51 E 15 G 26 6.00 Light Rain FEW029 BKN048 OVC060 80.1 72 76% 84 30.01 1012.7
19 14:51 E 17 G 24 9.00 Overcast SCT026 BKN035 OVC050 84 71.1 65% 89 30.02 1012.5
19 13:51 E 15 8.00 Light Rain SCT036 OVC045 82 71.1 69% 86 30.02 1012.9
19 12:51 E 12 10.00 Overcast FEW028 OVC039 82.9 70 84 73 65% 87 30.03 1013.2
19 11:51 E 18 G 25 10.00 Overcast SCT030 OVC040 82.9 70 65% 87 30.04 1013.2
19 10:51 E 13 G 20 10.00 Overcast SCT025 SCT030 OVC038 80.1 70 71% 83 30.02 1012.7
19 09:51 E 7 10.00 Overcast BKN024 OVC032 78.1 69.1 74% 80 30.02 1012.8
19 08:51 E 6 10.00 Overcast FEW017 OVC026 75.9 70 82% 77 30.02 1012.5
19 07:51 E 9 10.00 Overcast FEW022 OVC027 75 70 84% 75 29.99 1011.5
19 06:51 E 3 10.00 Overcast OVC026 73 71.1 80.1 73 94% 29.97 1010.9
19 05:51 SE 8 10.00 Overcast SCT021 OVC032 75 69.1 82% 75 29.95 1010.2
Date Time (cdt) Wind (mph) Vis. (mi.) Weather Sky Cond. Air Dwpt Max. Min. Relative Humidity Wind Chill (°F) Heat Index (°F) altimeter (in) sea level (mb) 1 hr 3 hr 6 hr
6 hour
Temperature (ºF) Pressure Precipitation (in)